OBJECT C, 44312

Orbit data source: Space-Track

You're viewing an Uncataloged Satellite

Recently launched and/or uncataloged satellites may have evolving metadata. Metadata may include but not limited to: Owner, Maufacturer, Bus, Motor, and Mission.

OBJECT C, 44312 is a satellite owned by CAST (CN) in LEO that was launched on Wed, 05 Jun 2019 UTC via a CHANG ZHENG 11 launch vehicle from the Yellow Sea Launch Area, China (YSLA). Unknown objects in Earth's orbit typically refer to objects detected orbiting the Earth but have not yet been identified or cataloged. These objects could be anything from previously untracked satellites, spent rocket stages, debris from satellite collisions, or even natural meteoroids temporarily captured by Earth's gravity.

Loading next visibility...
Identifier
44312, 2019-032C
Orbit
LEO
Last TLE update
9 hours ago
Origin
Manufacturer
CAST?
Mission
Operational Commercial Weather
Bus & Motor
BF, Unknown motor
Mass
~10 kg wet, ~10 kg dry
Launch date (UTC)
2019-06-05 (6 years ago)
Launch vehicle
CHANG ZHENG 11
Launch site
Yellow Sea Launch Area, China (YSLA)
Object type
Unknown
Shape & HBR
Box, 0.3 m
Radar Cross Section
0.105 m², Medium (>0.1 m² and < 1m²)

Expand to show TLE details & history

TLE from 9 hours ago
0 OBJECT C
1 44312U 19032C   25128.90253312  .00010356  00000-0  45241-3 0  9996
2 44312  44.9841  43.3606 0012054 151.6639 208.4899 15.22283307326038
Epoch: 2025-05-08T21:39Z
Definitive object data (Epoch: 2025-05-08T21:39:38.861Z)
Latitude
-0.00006°
Longitude
-148.51774°
Altitude
506.239 km
Speed
7.609 km/s
True Right ascension
02h 53m 26s
True Declination
0° 00' 00"
Sunlit
Object was in daylight at TLE epoch
Visualization TLE readout
Latitude
-38.07794°
Longitude
80.69089°
Altitude
509.9 km
Speed
7.61 km/s
Apparent Right ascension
22h 02m 53s
Apparent Declination
-61° 26' 03"
Sunlit
Object is in full shadow
Visualization observer readout
Local Sidereal Time
14:43:59
Azimuth
141.706° SSE
Elevation
-43.419°
Doppler factor
1
Orbital elements
Apogee altitude
508.855 km
Perigee altitude
492.272 km
Semi-major axis
6,878.7 km
Eccentricity
0.0012054
Inclination
44.9841°
RAAN
43.3606°
Arg. of periapsis
151.6639°
True anomaly
208.4241°
Mean anomaly
208.4899°
Eccentric anomaly
208.45699°
Mean motion
3.80438 °/min
BSTAR
0.00045241
Orbital period
94.63 mins
Loading maneuver chart data...
Loading SW <> Apogee altitude chart data...
Loading historical data...
Loading historical data...
Loading historical data...
Loading historical data...
Loading historical data...
Loading historical data...
Loading historical data...

OBJECT C Visibility forecast

Observer location: undefined°, undefined°

Span
Click to sort rows by Start time (UTC) header in descending order
Start Az.
Max El. time (UTC)
Max El. Az.
Max El.
End time (UTC)
End Az.
7 mins2025-05-09 21:29:08.069Z227.215° WSW2025-05-09 21:32:08.069Z180.747° SSW37.769°2025-05-09 21:36:08.069Z73.151° E
6 mins2025-05-09 23:09:08.069Z278.338° WNW2025-05-09 23:12:08.069Z4.42° NNE35.323°2025-05-09 23:15:08.069Z60.853° ENE
5 mins2025-05-10 00:49:08.069Z305.831° NW2025-05-10 00:51:08.069Z354.202° N31.986°2025-05-10 00:54:08.069Z71.231° E
6 mins2025-05-10 02:28:08.069Z293.072° NW2025-05-10 02:31:08.069Z121.851° SE43.825°2025-05-10 02:34:08.069Z115.658° SE
4 mins2025-05-10 04:08:08.069Z247.462° WSW2025-05-10 04:09:08.069Z228.755° WSW16.806°2025-05-10 04:12:08.069Z176.509° S
|